Home > Weather > Weno > Past weeks

Flag for Micronesia Past Weather in Weno, Truk, Micronesia — Yesterday and Last 2 Weeks

Now
78 °F

Sprinkles. Cloudy.


Feels Like: 80 °F
Forecast: 78 / 87 °F
Wind: 8 mph from Southeast

Location: Truk Intl / Moen Island

Current Time: Jun 27, 2016 at 6:58:34 AM

Latest Report: Jun 27, 2016 at 5:53 AM


Visibility: 14 mi

Pressure: 29.85 "Hg

Humidity: 94%

Dew Point: 76 °F

Location of WenoLocation

Past Weather in Weno — Graph

°F

Weno Temperature Yesterday

Maximum temperature yesterday: 89 °F (at 1:53 PM)
Minimum temperature yesterday: 80 °F (at 9:54 PM)
Average temperature yesterday: 84 °F

High & Low Weather Summary for the Past Weeks

 TemperatureHumidityPressure
High90 °F (Jun 17, 12:50 PM)100% (Jun 20, 3:58 AM)29.92 "Hg (Jun 20, 3:58 AM)
Low76 °F (Jun 15, 5:51 AM)72% (Jun 19, 12:50 PM)29.72 "Hg (Jun 20, 2:50 PM)
Average83 °F87%29.81 "Hg
* Reported Jun 12 4:50 AM — Jun 27 4:52 AM, Weno, Weather by CustomWeather, © 2016

Note: Actual official high and low records may vary slightly from our data, if they occured in-between our weather recording intervals... More about our weather records

Advertising

Weno Weather History for the Previous 24 Hours

Scroll right to see more
 ConditionsComfort  
Time TempWeatherWind HumidityBarometerVisibility
4:52 AM
Mon, Jun 27
78 °FSprinkles. Overcast.6 mph96%29.84 "Hg14 mi
3:55 AM77 °FSprinkles. Mostly cloudy.6 mph95%29.83 "Hg14 mi
3:04 AM81 °FRain showers. Mostly cloudy.14 mph89%29.83 "Hg5 mi
2:56 AM82 °FSprinkles. Overcast.5 mph86%29.82 "Hg14 mi
1:52 AM82 °FPartly cloudy.5 mph86%29.82 "Hg15 mi
12:55 AM81 °FPartly cloudy.6 mph88%29.83 "Hg15 mi
11:58 PM
Sun, Jun 26
81 °FPartly cloudy.8 mph89%29.84 "Hg15 mi
10:56 PM81 °FMostly cloudy.8 mph88%29.86 "Hg15 mi
9:54 PM80 °FMostly cloudy.3 mph93%29.85 "Hg15 mi
8:52 PM80 °FMostly cloudy.5 mph92%29.85 "Hg15 mi
7:50 PM82 °FMostly cloudy.8 mph85%29.83 "Hg15 mi
5:50 PM83 °FMore clouds than sun.3 mph82%29.83 "Hg15 mi
4:50 PM86 °FMore clouds than sun.8 mph78%29.79 "Hg15 mi
1:53 PM89 °FMore clouds than sun.10 mph74%29.79 "Hg15 mi
12:52 PM88 °FMore clouds than sun.10 mph75%29.80 "Hg15 mi
11:51 AM88 °FMore clouds than sun.10 mph75%29.82 "Hg15 mi
10:52 AM88 °FMore clouds than sun.10 mph77%29.84 "Hg15 mi
9:51 AM87 °FMore clouds than sun.10 mph80%29.85 "Hg15 mi
8:50 AM86 °FMore clouds than sun.9 mph77%29.85 "Hg15 mi
6:51 AM83 °FMore clouds than sun.5 mph83%29.85 "Hg15 mi
Weather by CustomWeather, © 2016

See weather overviewHow to use our weather pages